KLM33 EDDW-EHGG

Flight info

Callsign KLM33
Flight time 0h 26m
Altitude 18000
Route OKWEL1M OKWEL N125 ITMIZ DCT DOBAK
Aircraft A320/M-SDE3FGHIRWY/LB1

Departure

Time 2026-05-07 12:22
Airport Bremen Airport (EDDW)

Arrival

Time 2026-05-07 12:48
Airport Groningen Airport Eelde (EHGG)
Time Latitude Longitude Altitude Speed Heading
2026-05-07 12:00 53.05142 8.78597 22 ft 0 kts 49°
2026-05-07 12:14 53.05134 8.78583 26 ft 4 kts 47°
2026-05-07 12:14 53.05115 8.78552 23 ft 4 kts 40°
2026-05-07 12:14 53.05093 8.78526 25 ft 4 kts 22°
2026-05-07 12:15 53.05070 8.78520 26 ft 4 kts 329°
2026-05-07 12:15 53.05063 8.78529 25 ft 0 kts 320°
2026-05-07 12:17 53.05084 8.78500 26 ft 9 kts 320°
2026-05-07 12:18 53.05134 8.78417 22 ft 10 kts 309°
2026-05-07 12:18 53.05167 8.78315 24 ft 13 kts 289°
2026-05-07 12:18 53.05191 8.78149 24 ft 15 kts 279°
2026-05-07 12:18 53.05164 8.77997 23 ft 13 kts 238°
2026-05-07 12:19 53.05109 8.77875 22 ft 15 kts 226°
2026-05-07 12:19 53.05037 8.77748 22 ft 14 kts 227°
2026-05-07 12:19 53.04972 8.77631 22 ft 13 kts 228°
2026-05-07 12:19 53.04901 8.77518 24 ft 17 kts 217°
2026-05-07 12:20 53.04809 8.77462 22 ft 9 kts 190°
2026-05-07 12:20 53.04750 8.77451 22 ft 10 kts 181°
2026-05-07 12:20 53.04678 8.77468 24 ft 8 kts 173°
2026-05-07 12:20 53.04660 8.77523 22 ft 5 kts 86°
2026-05-07 12:21 53.04661 8.77531 22 ft 0 kts 85°
2026-05-07 12:21 53.04668 8.77689 22 ft 49 kts 86°
2026-05-07 12:21 53.04683 8.78686 22 ft 120 kts 87°
2026-05-07 12:21 53.04718 8.80343 232 ft 155 kts 89°
2026-05-07 12:22 53.04731 8.82166 940 ft 159 kts 89°
2026-05-07 12:22 53.04758 8.84021 1664 ft 167 kts 88°
2026-05-07 12:22 53.04798 8.86081 2061 ft 190 kts 88°
2026-05-07 12:22 53.04848 8.88410 2448 ft 213 kts 87°
2026-05-07 12:23 53.04905 8.90934 3066 ft 229 kts 87°
2026-05-07 12:23 53.04971 8.93695 3785 ft 245 kts 87°
2026-05-07 12:23 53.05239 8.96509 4736 ft 252 kts 66°
2026-05-07 12:23 53.06406 8.98687 5695 ft 260 kts 31°
2026-05-07 12:24 53.08125 8.99678 6700 ft 266 kts 13°
2026-05-07 12:24 53.09978 9.00058 7618 ft 271 kts
2026-05-07 12:24 53.11887 9.00093 8518 ft 278 kts 354°
2026-05-07 12:24 53.13772 8.99279 9428 ft 285 kts 340°
2026-05-07 12:25 53.15628 8.98042 10294 ft 290 kts 340°
2026-05-07 12:25 53.17603 8.96867 10647 ft 314 kts 342°
2026-05-07 12:25 53.19758 8.95676 10914 ft 338 kts 342°
2026-05-07 12:25 53.22048 8.94439 11367 ft 352 kts 341°
2026-05-07 12:26 53.24251 8.92578 12071 ft 358 kts 324°
2026-05-07 12:26 53.26053 8.89681 12850 ft 362 kts 307°
2026-05-07 12:26 53.27277 8.86000 13651 ft 365 kts 290°
2026-05-07 12:26 53.27809 8.81850 14360 ft 369 kts 273°
2026-05-07 12:27 53.27704 8.77554 15047 ft 372 kts 265°
2026-05-07 12:27 53.27508 8.73239 15772 ft 374 kts 265°
2026-05-07 12:27 53.27308 8.68895 16479 ft 376 kts 265°
2026-05-07 12:27 53.27110 8.64586 17191 ft 379 kts 265°
2026-05-07 12:28 53.26906 8.60172 17830 ft 382 kts 265°
2026-05-07 12:28 53.26702 8.55721 18039 ft 385 kts 266°
2026-05-07 12:28 53.26454 8.51173 18080 ft 403 kts 262°
2026-05-07 12:28 53.25824 8.46519 18077 ft 417 kts 253°
2026-05-07 12:29 53.24950 8.41881 18078 ft 420 kts 253°
2026-05-07 12:29 53.24066 8.37218 18080 ft 423 kts 253°
2026-05-07 12:29 53.23179 8.32545 18078 ft 422 kts 253°
2026-05-07 12:29 53.22295 8.27886 18076 ft 421 kts 252°
2026-05-07 12:30 53.21410 8.23228 18075 ft 422 kts 253°
2026-05-07 12:30 53.20521 8.18557 18080 ft 422 kts 252°
2026-05-07 12:30 53.19633 8.13897 18079 ft 422 kts 253°
2026-05-07 12:30 53.18741 8.09238 18079 ft 422 kts 253°
2026-05-07 12:31 53.17853 8.04565 18078 ft 423 kts 253°
2026-05-07 12:31 53.16971 7.99886 18078 ft 423 kts 253°
2026-05-07 12:31 53.16093 7.95206 18082 ft 423 kts 253°
2026-05-07 12:31 53.15216 7.90539 18080 ft 422 kts 253°
2026-05-07 12:32 53.14333 7.85871 18071 ft 423 kts 253°
2026-05-07 12:32 53.13442 7.81202 18074 ft 423 kts 253°
2026-05-07 12:32 53.12547 7.76531 18076 ft 422 kts 253°
2026-05-07 12:32 53.11805 7.71819 18065 ft 422 kts 260°
2026-05-07 12:33 53.11829 7.62191 17894 ft 411 kts 280°
2026-05-07 12:33 53.12582 7.57658 17616 ft 404 kts 290°
2026-05-07 12:33 53.13658 7.53334 17339 ft 404 kts 292°
2026-05-07 12:34 53.14105 7.51551 17234 ft 403 kts 292°
2026-05-07 12:34 53.14817 7.48671 17058 ft 402 kts 292°
2026-05-07 12:34 53.15867 7.44367 16797 ft 400 kts 291°
2026-05-07 12:34 53.16906 7.40072 16536 ft 400 kts 291°
2026-05-07 12:35 53.17944 7.35769 16273 ft 398 kts 291°
2026-05-07 12:35 53.18965 7.31525 15773 ft 392 kts 291°
2026-05-07 12:35 53.19976 7.27334 15228 ft 387 kts 291°
2026-05-07 12:35 53.20865 7.23117 14662 ft 383 kts 284°
2026-05-07 12:36 53.21310 7.18772 14098 ft 379 kts 274°
2026-05-07 12:36 53.21374 7.14379 13464 ft 376 kts 270°
2026-05-07 12:36 53.21393 7.10046 12855 ft 372 kts 270°
2026-05-07 12:36 53.21414 7.05746 12236 ft 368 kts 270°
2026-05-07 12:37 53.21438 7.01492 11587 ft 365 kts 270°
2026-05-07 12:37 53.21461 6.97273 11080 ft 359 kts 270°
2026-05-07 12:37 53.21482 6.93207 10954 ft 342 kts 270°
2026-05-07 12:37 53.21500 6.89324 10828 ft 327 kts 270°
2026-05-07 12:38 53.21517 6.85605 10703 ft 313 kts 270°
2026-05-07 12:38 53.21332 6.82071 10581 ft 300 kts 257°
2026-05-07 12:38 53.20673 6.78833 10381 ft 291 kts 243°
2026-05-07 12:38 53.19619 6.76048 10151 ft 286 kts 230°
2026-05-07 12:39 53.18221 6.73718 9967 ft 284 kts 220°
2026-05-07 12:39 53.16701 6.71541 9832 ft 284 kts 220°
2026-05-07 12:39 53.15229 6.69414 9695 ft 284 kts 220°
2026-05-07 12:39 53.13734 6.67246 9266 ft 285 kts 220°
2026-05-07 12:40 53.12235 6.65076 8777 ft 286 kts 220°
2026-05-07 12:40 53.10734 6.62908 8374 ft 284 kts 220°
2026-05-07 12:40 53.09238 6.60747 7919 ft 284 kts 220°
2026-05-07 12:40 53.07759 6.58609 7551 ft 280 kts 220°
2026-05-07 12:41 53.06772 6.57186 7123 ft 277 kts 220°
2026-05-07 12:41 53.05325 6.55104 6521 ft 273 kts 220°
2026-05-07 12:41 53.03890 6.53043 6031 ft 272 kts 220°
2026-05-07 12:41 53.02456 6.50986 5558 ft 273 kts 220°
2026-05-07 12:42 53.01014 6.48922 5102 ft 274 kts 220°
2026-05-07 12:42 52.99600 6.46903 4805 ft 268 kts 220°
2026-05-07 12:42 52.98251 6.44886 4661 ft 255 kts 229°
2026-05-07 12:42 52.97464 6.42365 4501 ft 243 kts 259°
2026-05-07 12:43 52.97525 6.39639 4261 ft 237 kts 288°
2026-05-07 12:43 52.98366 6.37291 3657 ft 239 kts 320°
2026-05-07 12:43 52.99751 6.36024 3399 ft 220 kts 351°
2026-05-07 12:43 53.01183 6.36141 3218 ft 199 kts 22°
2026-05-07 12:44 53.02271 6.37451 2934 ft 194 kts 50°
2026-05-07 12:44 53.03103 6.39198 2594 ft 192 kts 51°
2026-05-07 12:44 53.03920 6.40926 2301 ft 188 kts 51°
2026-05-07 12:44 53.04711 6.42596 2023 ft 178 kts 51°
2026-05-07 12:45 53.05431 6.44133 1779 ft 159 kts 51°
2026-05-07 12:45 53.06065 6.45514 1613 ft 141 kts 51°
2026-05-07 12:45 53.06641 6.46770 1421 ft 133 kts 52°
2026-05-07 12:45 53.07202 6.47991 1257 ft 130 kts 51°
2026-05-07 12:46 53.07766 6.49168 1083 ft 128 kts 49°
2026-05-07 12:46 53.08323 6.50319 909 ft 127 kts 49°
2026-05-07 12:46 53.08880 6.51474 746 ft 127 kts 48°
2026-05-07 12:46 53.09428 6.52616 572 ft 129 kts 50°
2026-05-07 12:47 53.09978 6.53769 414 ft 126 kts 47°
2026-05-07 12:47 53.10546 6.54907 251 ft 128 kts 48°
2026-05-07 12:47 53.11090 6.56056 74 ft 125 kts 51°
2026-05-07 12:47 53.11600 6.57117 34 ft 99 kts 50°
2026-05-07 12:48 53.11899 6.57761 36 ft 47 kts 53°
2026-05-07 12:48 53.12103 6.58195 37 ft 48 kts 51°
2026-05-07 12:48 53.12317 6.58648 27 ft 48 kts 52°
2026-05-07 12:48 53.12465 6.58956 29 ft 14 kts 51°
2026-05-07 12:49 53.12552 6.58960 29 ft 13 kts 341°
2026-05-07 12:49 53.12628 6.58855 27 ft 15 kts 311°
2026-05-07 12:49 53.12677 6.58759 26 ft 11 kts 310°
2026-05-07 12:49 53.12725 6.58656 23 ft 12 kts 299°
2026-05-07 12:50 53.12746 6.58604 23 ft 4 kts 325°
2026-05-07 12:50 53.12767 6.58598 23 ft 2 kts 353°
2026-05-07 12:50 53.12783 6.58595 25 ft 2 kts 355°
2026-05-07 12:50 53.12812 6.58591 22 ft 6 kts 355°
2026-05-07 12:51 53.12820 6.58590 22 ft 0 kts 355°